Precipitable_Water
1.36 1.42 1.48 1.54 1.62 1.68 1.73 1.68 1.63 1.61 1.60 1.55 1.53 1.51 1.49 1.47 1.43 1.46 1.46 1.49 1.48 1.50 1.49 1.54 1.57 1.60 1.59 1.59 1.61 1.63 1.64 1.70 1.72 1.75 1.82 1.83 1.82 1.81 1.85 1.84 1.86 1.87 1.84 1.81 1.79 1.75 1.71 1.69 1.69 1.68 1.68 1.70 1.75 1.76 1.71 1.60 1.53 1.43 1.42 1.40 1.39 1.41 1.43 1.41 1.37 1.31 1.26 1.22 1.19 1.28 1.48 1.63 1.73 1.75 1.77 1.80 1.86 1.85 1.83 1.82 1.85 1.84 1.84 1.79 1.71
1.39 1.38 1.53 1.55 1.63 1.66 1.70 1.66 1.60 1.59 1.61 1.52 1.54 1.53 1.51 1.44 1.45 1.48 1.45 1.47 1.49 1.41 1.51 1.53 1.57 1.59 1.58 1.57 1.57 1.62 1.65 1.67 1.70 1.73 1.79 1.80 1.80 1.81 1.80 1.83 1.86 1.88 1.89 1.81 1.78 1.77 1.74 1.70 1.68 1.69 1.69 1.72 1.75 1.74 1.71 1.74 1.62 1.55 1.47 1.47 1.43 1.43 1.46 1.46 1.45 1.27 1.16 1.12 1.11 1.22 1.38 1.58 1.74 1.77 1.77 1.82 1.84 1.86 1.86 1.82 1.85 1.88 1.85 1.82 1.77
1.48 1.37 1.51 1.59 1.60 1.66 1.70 1.66 1.63 1.61 1.59 1.57 1.54 1.53 1.53 1.52 1.51 1.52 1.50 1.49 1.48 1.53 1.53 1.52 1.57 1.56 1.59 1.56 1.60 1.62 1.63 1.67 1.67 1.73 1.80 1.84 1.76 1.78 1.75 1.77 1.78 1.78 1.79 1.79 1.79 1.78 1.77 1.73 1.69 1.67 1.67 1.68 1.78 1.74 1.69 1.75 1.79 1.68 1.58 1.50 1.51 1.48 1.50 1.51 1.40 1.24 1.12 1.06 1.09 1.21 1.34 1.48 1.62 1.70 1.72 1.78 1.81 1.84 1.87 1.87 1.84 1.85 1.86 1.84 1.78
1.44 1.42 1.53 1.56 1.60 1.68 1.68 1.65 1.62 1.63 1.61 1.61 1.56 1.54 1.56 1.55 1.53 1.53 1.52 1.52 1.53 1.57 1.57 1.56 1.56 1.57 1.56 1.57 1.56 1.58 1.63 1.66 1.67 1.71 1.70 1.73 1.75 1.78 1.77 1.75 1.77 1.73 1.74 1.76 1.78 1.77 1.76 1.74 1.71 1.68 1.67 1.70 1.78 1.86 1.77 1.76 1.81 1.81 1.68 1.57 1.56 1.54 1.53 1.52 1.39 1.20 1.17 1.11 1.11 1.20 1.25 1.38 1.45 1.53 1.64 1.72 1.82 1.84 1.86 1.87 1.86 1.85 1.86 1.87 1.79
1.34 1.46 1.54 1.55 1.61 1.66 1.66 1.63 1.67 1.68 1.65 1.62 1.55 1.56 1.59 1.59 1.58 1.54 1.55 1.55 1.55 1.57 1.58 1.58 1.54 1.53 1.52 1.56 1.57 1.57 1.61 1.65 1.68 1.66 1.68 1.72 1.74 1.77 1.76 1.75 1.74 1.78 1.75 1.73 1.77 1.77 1.74 1.72 1.71 1.70 1.70 1.72 1.77 1.89 1.87 1.76 1.71 1.75 1.78 1.62 1.56 1.56 1.52 1.53 1.38 1.19 1.19 1.14 1.15 1.23 1.28 1.34 1.45 1.47 1.54 1.66 1.75 1.81 1.83 1.88 1.89 1.89 1.89 1.86 1.83
1.43 1.52 1.55 1.53 1.57 1.62 1.63 1.65 1.68 1.66 1.65 1.64 1.60 1.57 1.56 1.54 1.53 1.54 1.44 1.53 1.55 1.55 1.52 1.50 1.51 1.49 1.51 1.52 1.53 1.55 1.59 1.63 1.65 1.67 1.68 1.68 1.70 1.70 1.73 1.76 1.77 1.75 1.73 1.76 1.74 1.76 1.74 1.72 1.72 1.71 1.72 1.75 1.80 1.90 2.00 1.70 1.62 1.75 1.80 1.71 1.61 1.57 1.54 1.53 1.40 1.23 1.28 1.25 1.29 1.36 1.39 1.37 1.44 1.48 1.48 1.55 1.67 1.76 1.77 1.82 1.88 1.88 1.90 1.86 1.85
1.54 1.57 1.51 1.52 1.51 1.58 1.60 1.66 1.71 1.69 1.68 1.63 1.61 1.59 1.58 1.55 1.55 1.51 1.51 1.56 1.52 1.54 1.49 1.45 1.40 1.41 1.43 1.47 1.51 1.56 1.60 1.61 1.62 1.61 1.64 1.65 1.66 1.68 1.71 1.73 1.73 1.71 1.71 1.73 1.79 1.75 1.73 1.73 1.71 1.70 1.71 1.77 1.82 1.90 1.99 1.63 1.65 1.86 1.69 1.75 1.66 1.57 1.58 1.58 1.41 1.28 1.30 1.26 1.31 1.43 1.46 1.42 1.36 1.35 1.44 1.44 1.52 1.69 1.77 1.81 1.85 1.88 1.91 1.87 1.86
1.58 1.57 1.52 1.49 1.56 1.60 1.61 1.68 1.64 1.69 1.69 1.65 1.61 1.62 1.58 1.52 1.58 1.55 1.49 1.54 1.47 1.53 1.55 1.47 1.44 1.41 1.46 1.49 1.56 1.56 1.58 1.63 1.63 1.62 1.64 1.65 1.65 1.68 1.69 1.70 1.70 1.70 1.69 1.69 1.72 1.70 1.69 1.69 1.69 1.68 1.69 1.75 1.81 1.86 1.97 1.68 1.70 1.62 1.67 1.79 1.69 1.61 1.62 1.59 1.45 1.31 1.28 1.23 1.25 1.36 1.39 1.42 1.43 1.36 1.38 1.42 1.45 1.55 1.71 1.81 1.85 1.85 1.88 1.87 1.85
1.58 1.56 1.49 1.47 1.55 1.59 1.59 1.62 1.66 1.66 1.63 1.68 1.62 1.64 1.57 1.58 1.60 1.57 1.53 1.49 1.50 1.49 1.50 1.51 1.49 1.48 1.50 1.52 1.58 1.56 1.57 1.60 1.62 1.61 1.60 1.60 1.63 1.67 1.68 1.69 1.68 1.68 1.70 1.73 1.77 1.72 1.68 1.68 1.71 1.69 1.70 1.73 1.76 1.86 1.93 1.65 1.65 1.60 1.69 1.80 1.76 1.68 1.67 1.60 1.49 1.33 1.27 1.24 1.28 1.27 1.33 1.36 1.36 1.39 1.38 1.37 1.45 1.53 1.64 1.74 1.82 1.83 1.85 1.90 1.85
1.55 1.52 1.45 1.48 1.59 1.61 1.63 1.65 1.65 1.65 1.61 1.64 1.63 1.66 1.64 1.58 1.60 1.60 1.50 1.47 1.52 1.47 1.49 1.51 1.49 1.50 1.51 1.53 1.55 1.55 1.59 1.62 1.63 1.58 1.59 1.62 1.66 1.68 1.64 1.69 1.69 1.70 1.71 1.75 1.77 1.70 1.68 1.73 1.72 1.71 1.70 1.71 1.74 1.81 1.94 1.81 1.60 1.61 1.66 1.79 1.82 1.75 1.71 1.58 1.49 1.30 1.24 1.27 1.33 1.30 1.31 1.29 1.29 1.28 1.32 1.35 1.39 1.51 1.65 1.75 1.79 1.79 1.82 1.86 1.85
1.51 1.49 1.45 1.47 1.54 1.57 1.57 1.61 1.65 1.61 1.57 1.57 1.64 1.64 1.62 1.64 1.60 1.64 1.64 1.60 1.51 1.51 1.47 1.45 1.46 1.49 1.49 1.50 1.49 1.54 1.57 1.61 1.60 1.63 1.65 1.63 1.64 1.63 1.63 1.69 1.73 1.72 1.72 1.72 1.73 1.68 1.69 1.71 1.72 1.70 1.67 1.68 1.70 1.75 1.86 1.85 1.69 1.62 1.59 1.77 1.85 1.81 1.75 1.63 1.53 1.30 1.21 1.26 1.34 1.35 1.32 1.30 1.27 1.24 1.24 1.34 1.35 1.41 1.56 1.71 1.74 1.77 1.80 1.83 1.85
1.47 1.46 1.46 1.51 1.56 1.58 1.55 1.59 1.60 1.59 1.57 1.55 1.62 1.65 1.64 1.63 1.64 1.52 1.49 1.56 1.64 1.57 1.55 1.48 1.49 1.46 1.44 1.46 1.53 1.50 1.55 1.49 1.60 1.63 1.65 1.66 1.67 1.68 1.68 1.76 1.71 1.73 1.71 1.71 1.73 1.77 1.82 1.75 1.74 1.69 1.66 1.62 1.70 1.70 1.76 1.83 1.83 1.73 1.64 1.78 1.85 1.81 1.79 1.69 1.57 1.36 1.22 1.24 1.30 1.34 1.34 1.31 1.27 1.23 1.21 1.25 1.33 1.38 1.48 1.61 1.70 1.74 1.77 1.80 1.83
1.48 1.45 1.46 1.54 1.61 1.65 1.60 1.55 1.58 1.60 1.57 1.58 1.64 1.64 1.63 1.59 1.64 1.63 1.44 1.46 1.51 1.57 1.64 1.49 1.35 1.41 1.44 1.41 1.48 1.58 1.56 1.55 1.59 1.61 1.63 1.63 1.65 1.63 1.67 1.65 1.69 1.69 1.69 1.69 1.69 1.73 1.74 1.72 1.67 1.66 1.63 1.68 1.68 1.67 1.67 1.74 1.80 1.74 1.78 1.76 1.85 1.80 1.77 1.75 1.61 1.44 1.27 1.25 1.27 1.32 1.37 1.35 1.28 1.22 1.19 1.18 1.26 1.38 1.46 1.57 1.67 1.72 1.79 1.83 1.83
1.47 1.44 1.50 1.59 1.58 1.57 1.58 1.58 1.52 1.59 1.53 1.56 1.55 1.59 1.61 1.59 1.64 1.53 1.63 1.54 1.44 1.53 1.55 1.32 1.39 1.36 1.25 1.24 1.43 1.51 1.43 1.56 1.58 1.61 1.62 1.62 1.64 1.64 1.64 1.64 1.65 1.66 1.70 1.70 1.73 1.76 1.78 1.76 1.72 1.70 1.75 1.68 1.68 1.65 1.65 1.67 1.74 1.82 1.81 1.76 1.82 1.78 1.74 1.76 1.65 1.50 1.36 1.28 1.24 1.30 1.37 1.37 1.31 1.27 1.23 1.21 1.22 1.33 1.46 1.52 1.62 1.68 1.76 1.83 1.84
1.46 1.43 1.51 1.58 1.61 1.61 1.59 1.63 1.58 1.60 1.57 1.56 1.59 1.54 1.57 1.57 1.54 1.50 1.47 1.53 1.50 1.61 1.55 1.46 1.26 1.38 1.35 1.24 1.33 1.20 1.48 1.55 1.59 1.59 1.62 1.61 1.63 1.64 1.63 1.66 1.68 1.75 1.77 1.73 1.73 1.77 1.75 1.71 1.70 1.72 1.70 1.66 1.69 1.68 1.65 1.64 1.66 1.72 1.77 1.78 1.78 1.77 1.75 1.78 1.70 1.53 1.44 1.28 1.26 1.30 1.37 1.40 1.37 1.32 1.30 1.25 1.25 1.30 1.40 1.49 1.57 1.64 1.73 1.78 1.78
1.43 1.41 1.48 1.61 1.61 1.60 1.62 1.64 1.65 1.63 1.56 1.53 1.50 1.50 1.55 1.53 1.53 1.56 1.52 1.29 1.43 1.53 1.63 1.58 1.40 1.30 1.15 1.18 1.23 1.26 1.25 1.36 1.37 1.50 1.60 1.63 1.65 1.62 1.71 1.69 1.72 1.72 1.65 1.68 1.75 1.73 1.74 1.72 1.68 1.74 1.70 1.65 1.66 1.72 1.64 1.64 1.65 1.67 1.73 1.74 1.78 1.74 1.75 1.77 1.75 1.59 1.41 1.32 1.28 1.30 1.36 1.39 1.37 1.34 1.33 1.31 1.30 1.31 1.35 1.45 1.54 1.62 1.70 1.70 1.69
1.37 1.38 1.44 1.60 1.60 1.59 1.61 1.61 1.65 1.64 1.63 1.58 1.54 1.59 1.63 1.57 1.56 1.43 1.46 1.37 1.30 1.46 1.55 1.59 1.57 1.55 1.28 1.16 1.18 1.21 1.26 1.32 1.31 1.45 1.52 1.55 1.61 1.76 1.76 1.79 1.75 1.74 1.71 1.73 1.73 1.76 1.74 1.71 1.72 1.70 1.73 1.69 1.70 1.76 1.74 1.70 1.69 1.67 1.70 1.73 1.77 1.74 1.72 1.76 1.77 1.70 1.47 1.31 1.29 1.31 1.35 1.43 1.42 1.38 1.37 1.36 1.36 1.36 1.37 1.44 1.55 1.63 1.68 1.66 1.65
1.35 1.30 1.39 1.55 1.55 1.59 1.59 1.63 1.65 1.66 1.62 1.61 1.63 1.55 1.53 1.53 1.63 1.54 1.48 1.60 1.39 1.34 1.42 1.59 1.59 1.54 1.48 1.43 1.37 1.17 1.21 1.31 1.24 1.23 1.48 1.60 1.66 1.76 1.62 1.64 1.72 1.71 1.72 1.74 1.73 1.71 1.74 1.68 1.72 1.72 1.72 1.75 1.78 1.77 1.76 1.72 1.67 1.68 1.70 1.74 1.74 1.74 1.70 1.71 1.76 1.77 1.64 1.35 1.24 1.31 1.35 1.40 1.48 1.49 1.43 1.40 1.40 1.41 1.47 1.55 1.61 1.64 1.64 1.62 1.62
1.29 1.24 1.32 1.49 1.57 1.59 1.60 1.60 1.65 1.66 1.66 1.61 1.56 1.55 1.61 1.65 1.67 1.59 1.56 1.58 1.44 1.33 1.35 1.47 1.58 1.54 1.60 1.59 1.56 1.51 1.49 1.31 1.20 1.27 1.24 1.48 1.64 1.49 1.59 1.67 1.75 1.75 1.64 1.69 1.72 1.72 1.74 1.71 1.66 1.70 1.72 1.72 1.73 1.72 1.75 1.73 1.62 1.60 1.64 1.70 1.72 1.73 1.70 1.66 1.70 1.75 1.72 1.52 1.25 1.24 1.33 1.39 1.42 1.48 1.51 1.51 1.51 1.53 1.54 1.55 1.57 1.60 1.62 1.64 1.65
1.25 1.22 1.33 1.46 1.49 1.49 1.55 1.59 1.62 1.66 1.68 1.61 1.60 1.65 1.68 1.64 1.64 1.59 1.52 1.54 1.49 1.40 1.40 1.45 1.39 1.47 1.60 1.50 1.56 1.59 1.53 1.48 1.46 1.29 1.22 1.24 1.27 1.52 1.71 1.74 1.69 1.73 1.71 1.70 1.72 1.70 1.69 1.69 1.67 1.65 1.70 1.72 1.70 1.70 1.75 1.72 1.69 1.67 1.64 1.65 1.71 1.72 1.68 1.66 1.63 1.70 1.72 1.64 1.40 1.23 1.20 1.32 1.39 1.42 1.49 1.52 1.50 1.49 1.51 1.54 1.56 1.58 1.60 1.60 1.61
1.26 1.34 1.39 1.44 1.45 1.45 1.51 1.57 1.60 1.63 1.65 1.65 1.66 1.68 1.64 1.63 1.60 1.54 1.54 1.55 1.58 1.58 1.46 1.48 1.47 1.51 1.53 1.57 1.55 1.50 1.54 1.57 1.51 1.46 1.37 1.26 1.27 1.35 1.43 1.61 1.66 1.68 1.70 1.72 1.70 1.71 1.68 1.65 1.60 1.53 1.63 1.66 1.66 1.66 1.69 1.72 1.72 1.66 1.63 1.65 1.65 1.69 1.68 1.67 1.62 1.62 1.68 1.66 1.57 1.37 1.21 1.17 1.28 1.37 1.36 1.41 1.48 1.51 1.51 1.51 1.53 1.56 1.57 1.58 1.59
1.23 1.34 1.42 1.44 1.44 1.46 1.51 1.59 1.60 1.60 1.62 1.66 1.69 1.65 1.58 1.58 1.58 1.57 1.65 1.55 1.60 1.58 1.56 1.57 1.58 1.62 1.57 1.59 1.50 1.50 1.48 1.50 1.48 1.49 1.46 1.41 1.27 1.31 1.41 1.44 1.44 1.60 1.68 1.69 1.68 1.67 1.66 1.64 1.62 1.71 1.70 1.72 1.71 1.68 1.71 1.67 1.73 1.79 1.69 1.62 1.61 1.65 1.66 1.64 1.63 1.60 1.64 1.63 1.59 1.52 1.36 1.20 1.15 1.23 1.34 1.35 1.33 1.35 1.39 1.43 1.47 1.50 1.53 1.55 1.56
1.25 1.29 1.34 1.43 1.45 1.50 1.57 1.59 1.58 1.57 1.59 1.60 1.59 1.65 1.68 1.68 1.69 1.70 1.61 1.60 1.60 1.64 1.59 1.60 1.63 1.62 1.62 1.62 1.56 1.55 1.54 1.40 1.37 1.41 1.36 1.34 1.35 1.37 1.46 1.53 1.49 1.53 1.65 1.73 1.72 1.65 1.70 1.65 1.65 1.70 1.65 1.71 1.73 1.71 1.73 1.76 1.63 1.61 1.55 1.60 1.53 1.59 1.63 1.61 1.60 1.58 1.59 1.63 1.59 1.55 1.50 1.36 1.22 1.15 1.14 1.25 1.33 1.31 1.29 1.29 1.30 1.33 1.36 1.38 1.40
1.30 1.29 1.31 1.38 1.46 1.51 1.54 1.53 1.50 1.51 1.56 1.62 1.67 1.72 1.71 1.69 1.69 1.68 1.68 1.73 1.71 1.63 1.62 1.62 1.61 1.65 1.63 1.65 1.66 1.69 1.63 1.58 1.60 1.57 1.48 1.47 1.40 1.39 1.46 1.54 1.58 1.63 1.67 1.77 1.70 1.72 1.68 1.63 1.68 1.73 1.73 1.73 1.72 1.77 1.76 1.70 1.69 1.57 1.55 1.54 1.50 1.51 1.57 1.59 1.57 1.56 1.56 1.59 1.60 1.57 1.53 1.48 1.38 1.25 1.16 1.14 1.17 1.26 1.31 1.29 1.28 1.28 1.30 1.30 1.30
1.24 1.22 1.31 1.38 1.44 1.45 1.45 1.42 1.42 1.46 1.53 1.65 1.70 1.68 1.61 1.63 1.65 1.66 1.71 1.70 1.73 1.73 1.70 1.68 1.68 1.64 1.63 1.69 1.69 1.67 1.66 1.68 1.65 1.59 1.58 1.62 1.52 1.44 1.54 1.59 1.48 1.58 1.67 1.69 1.64 1.80 1.72 1.68 1.70 1.76 1.78 1.80 1.76 1.80 1.84 1.77 1.79 1.70 1.57 1.62 1.45 1.50 1.53 1.54 1.55 1.55 1.53 1.54 1.58 1.59 1.56 1.53 1.48 1.42 1.32 1.21 1.15 1.15 1.17 1.24 1.28 1.27 1.27 1.30 1.32
1.20 1.20 1.30 1.37 1.40 1.43 1.42 1.41 1.43 1.49 1.57 1.61 1.63 1.67 1.70 1.65 1.64 1.65 1.66 1.75 1.76 1.72 1.66 1.69 1.69 1.68 1.69 1.65 1.66 1.66 1.63 1.69 1.65 1.63 1.63 1.56 1.54 1.50 1.47 1.55 1.58 1.50 1.66 1.64 1.75 1.64 1.76 1.78 1.79 1.77 1.79 1.82 1.84 1.85 1.81 1.77 1.77 1.71 1.64 1.68 1.58 1.50 1.50 1.53 1.53 1.52 1.52 1.53 1.54 1.57 1.58 1.55 1.54 1.50 1.44 1.37 1.27 1.18 1.14 1.14 1.16 1.22 1.29 1.31 1.34
1.20 1.27 1.30 1.34 1.37 1.39 1.44 1.44 1.47 1.51 1.60 1.62 1.64 1.67 1.68 1.64 1.60 1.62 1.66 1.71 1.70 1.71 1.68 1.65 1.64 1.65 1.63 1.63 1.64 1.63 1.67 1.66 1.68 1.65 1.69 1.69 1.61 1.60 1.53 1.40 1.44 1.49 1.50 1.60 1.63 1.68 1.55 1.76 1.76 1.80 1.80 1.83 1.85 1.81 1.76 1.86 1.88 1.78 1.69 1.70 1.80 1.52 1.51 1.52 1.51 1.53 1.51 1.50 1.54 1.55 1.57 1.56 1.54 1.54 1.52 1.47 1.44 1.37 1.29 1.18 1.10 1.11 1.13 1.20 1.28
1.28 1.29 1.32 1.29 1.30 1.36 1.44 1.47 1.52 1.59 1.62 1.64 1.64 1.67 1.71 1.64 1.64 1.64 1.60 1.70 1.68 1.64 1.63 1.62 1.63 1.66 1.64 1.64 1.56 1.56 1.65 1.68 1.70 1.68 1.70 1.70 1.67 1.65 1.61 1.53 1.35 1.24 1.40 1.46 1.48 1.60 1.73 1.66 1.82 1.84 1.83 1.84 1.81 1.87 1.79 1.73 1.79 1.76 1.70 1.74 1.85 1.74 1.54 1.53 1.55 1.54 1.54 1.51 1.52 1.53 1.55 1.58 1.57 1.58 1.57 1.53 1.52 1.48 1.43 1.38 1.32 1.21 1.10 1.06 1.08
1.33 1.32 1.30 1.34 1.36 1.43 1.51 1.56 1.58 1.57 1.65 1.67 1.67 1.65 1.65 1.62 1.62 1.63 1.60 1.68 1.67 1.59 1.57 1.56 1.57 1.59 1.63 1.64 1.63 1.63 1.62 1.66 1.67 1.71 1.74 1.65 1.65 1.67 1.65 1.50 1.45 1.26 1.23 1.23 1.39 1.37 1.64 1.70 1.68 1.82 1.85 1.89 1.84 1.90 1.86 1.89 1.94 1.83 1.84 1.81 1.87 1.87 1.68 1.56 1.58 1.59 1.58 1.53 1.52 1.52 1.51 1.54 1.57 1.59 1.58 1.59 1.56 1.53 1.50 1.46 1.40 1.37 1.34 1.23 1.11
1.31 1.36 1.36 1.38 1.47 1.55 1.57 1.57 1.63 1.65 1.62 1.64 1.64 1.65 1.67 1.62 1.65 1.65 1.68 1.69 1.62 1.60 1.58 1.57 1.59 1.60 1.58 1.60 1.65 1.67 1.74 1.72 1.72 1.73 1.72 1.68 1.63 1.64 1.63 1.60 1.57 1.37 1.32 1.17 1.22 1.45 1.50 1.70 1.76 1.72 1.85 1.82 1.93 1.94 1.93 1.92 1.88 1.80 1.84 1.93 1.95 1.95 1.89 1.70 1.62 1.61 1.63 1.59 1.55 1.54 1.54 1.53 1.55 1.56 1.58 1.59 1.60 1.59 1.55 1.53 1.50 1.44 1.41 1.39 1.35
1.40 1.38 1.42 1.45 1.52 1.56 1.56 1.59 1.59 1.59 1.62 1.59 1.63 1.66 1.66 1.60 1.62 1.61 1.66 1.63 1.57 1.51 1.55 1.54 1.56 1.59 1.57 1.51 1.56 1.56 1.62 1.61 1.62 1.66 1.70 1.69 1.67 1.69 1.67 1.64 1.57 1.52 1.39 1.32 1.15 1.49 1.59 1.56 1.75 1.83 1.77 1.80 1.85 1.90 1.96 2.00 1.94 1.81 1.83 1.93 1.97 1.97 1.90 1.82 1.73 1.68 1.64 1.65 1.64 1.63 1.59 1.59 1.57 1.57 1.56 1.57 1.60 1.61 1.60 1.59 1.57 1.56 1.53 1.51 1.50
1.47 1.49 1.47 1.49 1.56 1.59 1.62 1.57 1.58 1.61 1.58 1.57 1.59 1.63 1.62 1.60 1.61 1.60 1.67 1.72 1.59 1.51 1.55 1.60 1.61 1.64 1.60 1.53 1.55 1.52 1.56 1.59 1.61 1.63 1.68 1.73 1.72 1.68 1.71 1.70 1.66 1.63 1.54 1.39 1.27 1.32 1.65 1.67 1.71 1.77 1.80 1.77 1.83 1.79 1.85 1.96 1.99 1.88 1.88 1.92 1.98 1.91 1.88 1.87 1.81 1.79 1.76 1.72 1.70 1.69 1.70 1.69 1.66 1.64 1.61 1.59 1.59 1.61 1.62 1.61 1.61 1.60 1.61 1.61 1.58
1.54 1.54 1.55 1.55 1.59 1.61 1.62 1.63 1.60 1.58 1.59 1.60 1.64 1.65 1.65 1.63 1.59 1.55 1.55 1.57 1.53 1.52 1.55 1.52 1.52 1.55 1.57 1.51 1.50 1.53 1.56 1.54 1.60 1.64 1.68 1.71 1.72 1.68 1.64 1.65 1.62 1.67 1.64 1.54 1.43 1.46 1.61 1.79 1.72 1.73 1.79 1.75 1.78 1.83 1.83 1.87 1.92 2.00 1.93 1.99 1.97 1.90 1.87 1.90 1.98 1.91 1.85 1.82 1.81 1.78 1.74 1.71 1.70 1.71 1.71 1.68 1.64 1.62 1.62 1.61 1.60 1.61 1.62 1.63 1.64
1.52 1.53 1.56 1.60 1.61 1.60 1.59 1.56 1.54 1.54 1.58 1.57 1.56 1.60 1.59 1.56 1.53 1.56 1.60 1.58 1.51 1.48 1.48 1.48 1.51 1.49 1.53 1.52 1.51 1.57 1.62 1.55 1.64 1.68 1.69 1.64 1.63 1.60 1.63 1.62 1.63 1.66 1.78 1.63 1.58 1.51 1.48 1.70 1.73 1.84 1.81 1.91 1.79 1.96 1.84 1.80 1.86 1.89 1.90 1.96 2.00 1.97 1.90 1.96 1.98 2.03 1.92 1.87 1.88 1.89 1.90 1.85 1.80 1.75 1.72 1.70 1.69 1.67 1.66 1.65 1.62 1.61 1.60 1.61 1.62
1.51 1.49 1.51 1.54 1.57 1.59 1.54 1.53 1.53 1.50 1.53 1.54 1.56 1.54 1.56 1.55 1.51 1.52 1.58 1.62 1.62 1.57 1.55 1.55 1.56 1.59 1.54 1.55 1.53 1.57 1.67 1.75 1.57 1.49 1.51 1.55 1.55 1.51 1.53 1.57 1.56 1.62 1.68 1.75 1.67 1.57 1.58 1.64 1.79 1.75 1.79 1.88 1.81 1.86 1.93 1.93 1.91 1.89 1.81 1.84 1.85 1.92 1.98 1.96 1.91 2.00 2.05 1.96 1.88 1.89 1.93 1.95 1.93 1.91 1.86 1.80 1.75 1.72 1.69 1.66 1.64 1.63 1.63 1.62 1.61
1.45 1.52 1.50 1.51 1.53 1.53 1.50 1.50 1.50 1.47 1.47 1.48 1.50 1.55 1.54 1.52 1.51 1.53 1.55 1.55 1.55 1.56 1.56 1.56 1.56 1.56 1.55 1.62 1.61 1.64 1.59 1.55 1.55 1.60 1.63 1.66 1.56 1.50 1.54 1.64 1.67 1.70 1.75 1.78 1.82 1.73 1.71 1.64 1.79 1.82 1.86 1.83 1.89 1.95 1.99 2.00 1.93 1.93 1.91 1.89 1.90 1.83 1.86 1.89 1.92 1.98 2.01 1.95 1.91 1.86 1.87 1.91 1.93 1.96 1.97 1.95 1.91 1.86 1.79 1.74 1.71 1.67 1.64 1.63 1.63
1.39 1.46 1.51 1.47 1.47 1.49 1.47 1.46 1.46 1.45 1.44 1.44 1.45 1.48 1.54 1.56 1.56 1.55 1.56 1.55 1.55 1.58 1.60 1.62 1.63 1.60 1.53 1.57 1.53 1.66 1.66 1.61 1.69 1.76 1.80 1.74 1.71 1.65 1.63 1.67 1.70 1.76 1.79 1.81 1.82 1.84 1.76 1.71 1.73 1.89 1.97 1.96 1.97 1.96 1.98 1.87 1.91 1.94 1.98 1.89 1.85 1.86 1.85 1.88 1.82 1.91 1.90 1.94 1.88 1.85 1.86 1.86 1.87 1.87 1.89 1.92 1.95 1.97 1.95 1.90 1.84 1.80 1.77 1.74 1.71
1.38 1.41 1.46 1.51 1.44 1.44 1.46 1.45 1.45 1.45 1.45 1.44 1.46 1.49 1.51 1.54 1.55 1.58 1.58 1.59 1.61 1.64 1.68 1.71 1.70 1.66 1.66 1.66 1.73 1.78 1.90 1.88 1.85 1.87 1.86 1.81 1.83 1.78 1.73 1.69 1.75 1.80 1.81 1.84 1.85 1.82 1.79 1.78 1.74 1.80 1.99 1.94 1.97 1.94 1.99 1.94 1.84 1.83 1.83 1.87 1.88 1.87 1.83 1.80 1.82 1.92 2.00 1.99 1.90 1.87 1.83 1.80 1.81 1.83 1.85 1.86 1.87 1.87 1.90 1.93 1.94 1.94 1.90 1.87 1.84
1.34 1.38 1.41 1.47 1.52 1.49 1.47 1.43 1.38 1.39 1.42 1.46 1.47 1.49 1.51 1.51 1.50 1.51 1.55 1.60 1.66 1.71 1.73 1.75 1.70 1.77 1.84 1.87 1.91 1.96 1.96 1.99 1.96 1.94 1.94 1.91 1.89 1.85 1.84 1.81 1.86 1.85 1.83 1.83 1.86 1.81 1.78 1.75 1.78 1.84 1.88 1.90 1.90 1.87 2.00 2.02 1.94 1.86 1.78 1.76 1.72 1.84 1.86 1.84 1.83 1.90 1.89 1.91 2.00 1.93 1.82 1.81 1.76 1.74 1.77 1.81 1.83 1.83 1.83 1.85 1.87 1.91 1.95 1.97 1.96
1.31 1.31 1.35 1.40 1.48 1.49 1.45 1.41 1.41 1.41 1.42 1.45 1.47 1.48 1.50 1.50 1.53 1.57 1.63 1.69 1.75 1.78 1.81 1.82 1.83 1.90 1.96 1.99 2.00 2.04 2.03 2.03 2.04 2.05 2.07 2.00 1.96 1.93 1.93 1.89 1.88 1.83 1.78 1.78 1.78 1.74 1.71 1.71 1.70 1.74 1.81 1.76 1.82 1.89 1.98 1.95 1.82 1.83 1.89 1.82 1.68 1.73 1.79 1.91 1.92 1.84 1.97 1.91 1.83 1.95 1.98 1.91 1.80 1.74 1.74 1.75 1.77 1.78 1.80 1.83 1.85 1.88 1.89 1.91 1.93
1.40 1.37 1.34 1.34 1.37 1.41 1.42 1.39 1.38 1.40 1.41 1.43 1.45 1.47 1.50 1.51 1.58 1.65 1.72 1.76 1.79 1.82 1.86 1.91 1.95 1.98 1.99 1.98 2.06 2.06 2.05 2.02 2.07 2.11 2.12 2.10 2.03 1.93 1.96 1.96 1.89 1.86 1.81 1.79 1.76 1.73 1.71 1.68 1.68 1.73 1.72 1.74 1.75 1.75 1.76 1.78 1.74 1.77 1.92 1.89 1.78 1.78 1.80 1.82 1.93 2.03 1.97 1.90 1.93 1.94 1.97 2.03 1.99 1.96 1.98 1.87 1.81 1.77 1.79 1.81 1.83 1.86 1.88 1.91 1.93
1.42 1.42 1.38 1.34 1.32 1.33 1.36 1.37 1.36 1.35 1.34 1.36 1.40 1.48 1.51 1.57 1.64 1.69 1.76 1.82 1.87 1.90 1.90 1.92 1.97 1.97 1.95 2.03 2.07 2.05 2.03 2.02 2.05 2.06 2.03 2.02 2.03 1.99 1.96 1.98 2.02 1.94 1.88 1.81 1.77 1.77 1.76 1.72 1.70 1.68 1.61 1.68 1.77 1.78 1.72 1.78 1.84 1.86 1.84 1.91 1.82 1.86 1.86 1.80 1.87 1.89 1.96 1.91 1.90 1.86 1.87 1.97 1.93 1.93 1.93 1.89 1.99 2.00 1.96 1.90 1.85 1.89 1.91 1.94 1.97
1.39 1.41 1.40 1.35 1.31 1.30 1.30 1.30 1.31 1.34 1.35 1.34 1.39 1.41 1.47 1.52 1.57 1.63 1.71 1.80 1.90 1.93 1.96 1.97 1.96 1.96 1.95 2.05 2.03 1.97 1.96 1.90 1.90 1.95 1.98 1.96 1.96 1.99 2.02 2.02 2.09 2.06 1.98 1.90 1.85 1.85 1.81 1.79 1.81 1.80 1.71 1.72 1.78 1.84 1.78 1.77 1.82 1.80 1.78 1.83 1.81 1.83 1.78 1.66 1.59 1.86 2.01 1.95 1.84 1.81 1.83 1.95 1.91 1.81 1.86 1.88 1.92 2.01 2.09 2.13 2.11 2.07 2.02 1.98 1.97
1.33 1.37 1.36 1.34 1.32 1.32 1.30 1.28 1.29 1.31 1.36 1.47 1.40 1.40 1.44 1.51 1.58 1.67 1.74 1.78 1.85 1.90 1.95 1.98 1.99 1.96 1.93 1.88 1.89 1.94 1.95 1.91 1.88 1.88 1.87 1.89 1.89 1.91 1.91 1.93 1.94 2.00 2.03 1.98 1.89 1.84 1.85 1.81 1.78 1.81 1.80 1.78 1.83 1.86 1.81 1.79 1.78 1.79 1.81 1.82 1.81 1.78 1.75 1.73 1.78 1.65 2.03 2.03 1.83 1.73 1.71 1.91 1.96 1.90 1.85 1.91 1.97 2.02 2.00 1.97 1.99 2.15 2.16 2.02 1.96
1.34 1.30 1.31 1.34 1.34 1.34 1.30 1.29 1.32 1.40 1.47 1.42 1.40 1.40 1.45 1.52 1.59 1.64 1.69 1.74 1.77 1.83 1.90 1.94 1.94 1.91 1.86 1.83 1.87 1.96 1.92 1.88 1.85 1.86 1.88 1.87 1.88 1.87 1.87 1.86 1.87 1.87 1.86 1.89 1.93 1.90 1.89 1.81 1.81 1.80 1.79 1.85 1.84 1.88 1.94 1.92 1.94 1.80 1.80 1.75 1.79 1.80 1.80 1.75 1.84 1.82 1.92 2.07 1.84 1.71 1.63 1.80 1.86 1.84 1.81 1.96 2.00 2.01 2.04 2.02 1.96 1.98 2.00 2.01 1.98
1.40 1.34 1.33 1.33 1.35 1.36 1.36 1.34 1.39 1.51 1.52 1.47 1.45 1.44 1.46 1.53 1.59 1.62 1.66 1.70 1.75 1.82 1.88 1.92 1.95 1.96 1.93 1.90 1.86 1.86 1.89 1.84 1.83 1.86 1.86 1.84 1.85 1.85 1.82 1.86 1.86 1.86 1.85 1.86 1.89 1.94 1.96 1.89 1.85 1.79 1.94 1.97 1.87 1.88 1.98 2.01 1.92 1.86 1.83 1.79 1.82 1.79 1.80 1.80 1.89 1.96 2.06 2.08 1.89 1.81 1.69 1.81 1.91 1.83 1.77 1.87 1.94 1.99 2.09 2.07 2.12 2.05 1.96 1.92 1.90
1.50 1.43 1.40 1.35 1.36 1.37 1.38 1.44 1.48 1.54 1.43 1.44 1.44 1.44 1.46 1.51 1.55 1.59 1.64 1.72 1.76 1.80 1.87 1.91 1.94 1.96 1.94 1.89 1.83 1.82 1.86 1.86 1.86 1.87 1.87 1.80 1.88 1.86 1.87 1.86 1.87 1.90 1.90 1.88 1.89 1.90 1.94 1.97 1.93 1.89 1.91 1.95 1.94 1.96 1.98 2.02 1.99 1.96 1.93 1.89 1.89 1.87 1.86 1.92 1.93 2.06 2.05 2.04 1.95 1.87 1.64 1.76 1.87 1.78 1.77 1.88 2.01 2.00 2.01 2.02 1.98 1.94 1.90 1.88 1.86
1.72 1.64 1.58 1.53 1.48 1.45 1.46 1.49 1.52 1.42 1.48 1.48 1.47 1.46 1.48 1.50 1.54 1.60 1.69 1.74 1.78 1.82 1.88 1.92 1.94 1.93 1.90 1.86 1.85 1.85 1.88 1.88 1.90 1.91 1.93 1.98 1.94 1.92 1.93 1.93 1.92 2.02 2.01 2.09 2.13 2.11 2.10 2.14 2.07 2.02 2.00 2.00 2.01 1.96 1.97 1.97 1.98 1.98 1.96 1.96 1.96 1.94 1.86 1.78 1.73 1.85 1.85 1.95 1.93 1.79 1.66 1.66 1.82 1.74 1.77 1.89 1.91 1.91 2.05 2.03 2.02 1.95 1.91 1.86 1.85
1.90 1.78 1.70 1.69 1.69 1.64 1.59 1.59 1.65 1.54 1.47 1.50 1.51 1.52 1.53 1.55 1.59 1.67 1.74 1.75 1.75 1.75 1.81 1.89 1.92 1.93 1.91 1.91 1.91 1.91 1.92 1.93 1.93 1.96 1.98 1.98 1.97 1.90 1.97 1.89 1.92 1.92 1.95 2.08 2.10 2.09 2.12 2.14 2.13 2.09 2.02 1.97 1.98 1.96 1.91 1.88 1.88 1.90 1.87 1.79 1.77 1.86 1.77 1.69 1.71 1.73 1.75 1.81 1.84 1.82 1.72 1.64 1.76 1.74 1.70 1.78 1.82 1.84 1.89 1.93 2.00 1.96 1.96 1.94 1.90
1.99 1.96 1.94 1.84 1.81 1.78 1.72 1.72 1.76 1.67 1.56 1.63 1.65 1.65 1.65 1.67 1.71 1.74 1.75 1.70 1.73 1.78 1.81 1.87 1.88 1.86 1.85 1.85 1.89 1.92 1.91 1.92 1.96 1.96 2.02 2.05 2.01 2.00 1.92 1.90 1.95 2.00 2.02 2.10 2.09 2.08 2.07 2.01 1.98 1.99 1.97 1.94 1.94 1.94 1.89 1.85 1.84 1.85 1.77 1.64 1.76 1.79 1.69 1.66 1.58 1.63 1.71 1.69 1.70 1.78 1.65 1.62 1.72 1.74 1.64 1.71 1.78 1.88 1.93 1.98 1.96 1.95 1.90 1.91 1.90
2.08 2.08 2.02 1.93 1.91 1.91 1.85 1.77 1.75 1.69 1.67 1.75 1.79 1.79 1.78 1.77 1.77 1.77 1.74 1.76 1.76 1.80 1.79 1.73 1.78 1.79 1.82 1.87 1.90 1.92 1.93 1.95 1.99 2.02 2.03 2.06 2.02 2.00 2.02 2.02 1.93 1.88 1.94 1.99 1.95 1.92 1.92 1.91 1.91 1.91 1.89 1.90 1.88 1.87 1.88 1.87 1.85 1.85 1.85 1.80 1.80 1.73 1.64 1.62 1.61 1.60 1.58 1.59 1.70 1.81 1.61 1.64 1.65 1.70 1.66 1.58 1.53 1.75 1.91 1.92 1.88 1.87 1.88 1.86 1.85
Wind_Speed
8 8 8 8 7 7 7 7 6 6 6 5 4 3 3 3 2 2 2 1 1 2 2 3 3 4 5 5 6 6 6 7 6 6 6 6 6 5 5 5 5 5 5 5 6 6 7 7 8 8 8 8 8 8 8 8 8 9 9 10 9 9 9 9 10 10 10 11 11 11 12 13 15 16 17 18 20 21 20 20 21 21 20 21 21
8 9 9 8 8 7 7 6 6 6 5 5 4 3 3 3 2 1 1 1 1 2 2 3 3 4 5 5 6 6 6 6 6 6 5 5 5 5 5 5 4 4 5 5 6 7 7 7 8 8 9 9 9 9 9 9 9 9 10 10 10 10 10 10 11 11 11 11 11 11 12 13 14 15 16 17 19 21 21 21 21 21 21 21 21
9 9 9 8 8 8 7 6 6 6 5 4 4 3 3 2 1 1 1 0 1 2 2 3 3 4 5 5 6 6 6 7 6 6 5 5 5 5 5 5 5 5 5 5 6 7 7 7 8 8 9 10 10 9 9 9 10 10 10 11 11 11 11 11 11 11 11 11 12 12 12 12 13 14 16 18 19 20 21 22 22 21 21 21 20
10 10 10 9 8 8 7 7 6 5 5 4 4 3 3 2 1 1 0 0 1 2 3 3 4 4 5 5 6 6 6 7 7 6 6 5 5 5 5 5 5 5 5 6 6 7 7 8 8 9 9 10 11 10 9 10 11 11 12 12 12 12 12 12 12 11 11 11 12 12 12 12 13 14 16 18 19 20 21 22 22 22 21 21 20
10 11 10 9 9 8 7 6 6 5 5 4 4 3 3 2 2 1 0 1 2 2 3 4 4 5 5 6 6 6 6 7 6 6 5 5 5 5 5 5 6 6 6 6 6 7 7 8 8 9 10 10 12 11 10 11 13 13 14 14 14 14 13 12 12 12 11 11 11 12 12 13 13 14 15 17 19 20 21 22 22 22 21 21 21
11 11 11 10 10 9 7 6 6 5 4 4 4 3 3 2 2 1 1 2 2 3 4 4 4 5 5 6 6 6 6 7 7 6 5 5 5 5 6 6 6 6 6 6 7 7 7 8 9 9 10 11 12 12 11 12 13 14 15 15 15 15 14 13 13 12 11 11 11 11 11 12 12 14 15 17 19 20 21 22 22 22 22 21 21
11 12 11 11 10 9 8 6 6 5 4 4 4 3 3 2 2 2 2 2 2 3 4 4 5 5 5 6 6 6 6 7 7 6 5 5 5 5 6 6 5 6 6 6 7 7 8 8 9 9 10 11 12 13 12 12 13 14 15 15 16 16 15 14 14 13 12 11 10 10 11 11 11 13 15 17 18 20 21 22 22 22 22 21 21
12 12 12 11 10 8 7 6 5 5 4 4 4 3 3 2 2 2 2 2 3 3 4 4 5 5 5 5 5 6 6 7 7 7 6 6 6 6 6 5 5 5 6 6 7 7 8 8 9 9 10 11 12 12 12 12 13 15 16 16 16 17 16 15 14 14 12 11 10 9 10 11 12 13 15 17 18 19 21 22 22 22 21 21 21
12 12 12 11 9 8 7 6 6 5 4 4 3 3 2 2 2 2 2 3 3 4 4 4 5 5 5 5 5 5 6 6 7 7 6 6 6 6 6 6 5 5 6 6 7 7 8 8 9 9 10 11 12 12 11 11 13 15 15 16 17 17 17 16 16 15 13 10 8 6 7 10 12 13 15 17 18 19 21 22 22 21 21 21 21
13 13 12 10 9 8 7 6 6 5 5 4 3 2 2 2 1 1 1 2 3 4 4 4 4 4 5 5 5 5 6 6 6 7 6 6 6 6 6 6 6 6 6 6 7 7 8 8 9 10 11 11 12 12 11 11 12 15 15 16 17 18 17 17 17 16 13 10 6 2 5 9 12 14 16 18 19 20 20 22 22 21 21 21 20
13 12 11 10 9 8 7 7 6 6 5 4 3 3 2 2 1 1 1 2 3 3 4 4 4 4 5 5 5 6 6 6 6 6 6 6 6 6 6 6 6 6 6 6 6 6 7 7 9 10 11 12 12 12 12 11 12 14 16 16 17 18 18 18 19 17 14 11 7 3 4 8 11 14 16 18 20 20 20 21 22 21 21 21 20
13 12 11 10 9 8 8 7 6 6 5 4 4 3 2 2 1 1 1 2 2 3 3 3 4 4 4 5 5 5 6 6 6 6 6 6 6 6 6 6 6 6 6 6 6 7 6 7 8 9 10 11 12 12 13 12 12 14 16 17 17 18 19 19 19 18 15 13 10 7 7 9 12 14 16 18 20 21 21 21 21 21 20 20 19
12 12 11 10 9 8 8 7 6 5 5 5 4 3 3 2 1 1 2 2 2 3 3 3 4 4 5 5 5 5 5 5 6 6 6 6 5 6 6 6 6 6 6 6 6 7 7 6 7 8 9 11 12 12 13 13 13 14 16 17 17 18 19 19 20 19 17 15 13 11 11 12 14 15 16 18 20 21 21 21 21 20 20 19 19
12 12 11 10 10 9 8 7 6 5 5 5 4 4 4 3 2 2 2 2 3 3 3 3 4 4 5 5 5 4 4 5 6 6 6 6 5 5 6 6 6 6 6 6 6 7 7 7 7 8 9 10 11 12 13 14 14 15 16 17 17 18 19 20 20 20 18 17 16 14 14 14 14 15 16 18 20 21 21 21 20 20 19 19 18
12 12 11 10 10 9 8 7 6 6 5 5 4 4 4 4 3 3 3 3 3 3 3 3 4 4 4 4 5 5 4 5 6 5 6 6 6 5 6 6 6 6 7 6 6 7 7 7 7 7 8 9 10 11 12 13 14 15 15 16 17 18 19 19 20 20 20 19 18 17 16 16 15 16 17 19 20 20 20 20 19 19 18 18 17
12 12 11 10 10 9 8 7 6 6 5 5 4 4 4 4 4 3 3 4 3 3 3 3 3 4 4 4 4 4 4 5 6 5 6 6 6 6 6 7 7 7 7 7 7 7 7 7 7 7 7 8 9 10 11 12 13 14 14 15 16 17 18 19 20 20 20 20 20 19 18 17 17 17 18 20 20 19 19 19 19 18 17 17 17
12 12 11 10 10 9 8 7 6 6 5 5 4 4 4 4 4 4 4 3 3 3 3 3 3 3 3 3 3 3 4 6 6 5 6 6 7 8 7 8 8 8 7 7 7 7 6 7 7 7 7 7 8 9 10 11 13 13 14 14 15 16 17 18 19 20 20 20 20 20 19 19 18 18 19 19 20 19 19 19 18 17 17 16 16
12 12 11 10 10 9 8 8 7 6 5 5 5 4 4 4 4 3 3 3 3 3 3 2 2 2 2 2 3 3 4 5 5 5 5 6 7 8 8 7 8 8 8 7 7 7 6 7 7 6 7 7 7 8 9 10 11 12 13 14 15 15 16 17 17 18 19 20 20 20 19 19 19 18 19 19 19 19 18 18 17 16 16 15 15
12 11 11 10 10 9 9 8 7 6 6 5 5 5 5 4 4 3 3 3 3 3 3 2 2 2 2 2 3 3 4 4 5 5 5 6 7 7 7 7 7 7 8 8 7 7 6 7 7 6 6 6 7 7 8 9 10 11 12 13 13 14 15 15 16 17 17 18 19 19 18 18 18 18 18 18 18 17 17 16 16 15 14 14 14
11 11 11 10 10 9 9 8 7 6 6 5 5 5 5 5 4 4 4 3 3 3 3 3 3 2 2 2 3 3 3 3 4 5 5 6 6 7 6 7 7 7 8 8 8 7 7 7 7 6 6 6 6 7 7 8 9 10 11 12 12 13 14 14 15 15 16 17 17 17 17 17 17 16 16 16 16 15 15 15 14 14 13 13 13
11 11 11 10 10 10 9 9 8 7 6 6 6 6 5 5 5 4 4 4 3 3 3 3 3 3 3 3 3 3 3 3 3 4 5 5 6 6 7 7 7 7 8 8 8 8 7 7 7 6 6 6 6 6 7 7 8 9 9 10 11 11 12 13 14 14 15 15 16 16 16 15 15 15 14 14 14 14 13 13 13 13 12 12 12
11 11 11 10 10 10 9 8 8 7 6 6 6 6 6 5 5 5 4 4 4 4 3 3 3 3 3 3 3 3 3 3 3 4 4 5 5 6 6 7 7 7 7 8 8 8 7 7 7 7 6 6 6 6 6 6 7 8 8 9 10 10 11 12 12 13 13 13 14 14 14 14 14 13 13 13 13 12 12 12 12 11 11 11 11
11 10 11 10 10 10 9 8 8 7 7 6 6 6 5 5 5 5 5 4 4 4 3 3 3 3 4 3 3 3 3 3 3 3 4 4 5 6 6 6 7 7 7 7 7 7 7 7 7 7 7 7 6 6 6 6 7 7 7 7 8 8 9 10 10 11 11 12 12 13 13 13 13 12 12 11 11 11 11 11 10 10 10 10 9
10 10 10 10 10 10 10 9 8 7 7 7 6 6 5 5 5 5 5 4 4 4 3 4 4 4 4 3 3 3 3 3 3 3 4 4 5 5 6 6 6 6 7 7 6 7 7 6 6 6 7 7 7 6 6 6 6 6 6 6 6 7 7 8 8 9 9 10 10 10 11 11 11 11 11 10 10 9 9 9 9 9 8 8 8
11 10 10 11 10 10 10 9 8 8 7 7 7 6 6 6 6 5 5 5 4 4 4 4 4 4 4 4 3 3 3 3 3 4 4 4 4 4 5 6 6 6 6 6 6 6 6 6 6 6 6 6 6 6 6 6 6 6 6 5 5 5 6 6 6 7 7 8 8 8 8 8 9 9 9 9 8 8 7 7 7 7 7 7 7
11 11 11 11 10 10 10 9 9 8 8 8 8 7 7 6 6 6 5 5 5 5 5 5 5 4 4 4 4 4 3 3 3 3 4 4 4 4 5 5 5 6 5 6 6 6 6 6 6 6 6 6 6 6 6 5 5 6 5 5 4 4 4 5 5 5 5 6 6 6 6 6 6 6 7 7 6 6 6 6 6 6 6 6 7
11 11 11 11 11 10 10 9 9 9 8 8 8 7 7 7 6 6 6 5 5 5 5 5 5 4 4 4 4 4 4 4 3 3 3 4 4 4 5 5 5 5 5 6 6 6 6 5 5 6 6 6 6 5 5 5 5 5 5 4 4 3 3 3 3 3 3 4 4 4 4 4 4 4 4 4 4 4 4 5 5 5 6 6 6
11 11 11 11 11 10 10 10 10 9 9 9 8 8 7 7 7 7 6 6 6 6 5 5 5 5 4 4 4 4 4 4 4 4 3 4 4 4 4 4 5 5 5 6 5 5 6 5 5 5 6 6 6 5 5 4 4 4 4 4 3 3 3 2 2 2 2 2 3 3 3 3 3 3 3 3 3 3 3 4 4 4 5 5 6
12 12 11 11 11 11 10 10 10 10 9 9 9 8 8 8 7 7 7 6 6 6 6 5 5 5 5 4 4 4 4 4 4 4 4 4 4 4 4 4 5 5 5 6 6 5 5 5 5 5 5 6 5 5 5 4 4 4 3 3 3 2 2 1 1 1 1 1 1 1 2 2 2 2 2 3 3 3 3 4 4 4 5 5 5
12 12 12 12 12 11 11 10 10 10 10 10 9 9 9 8 8 8 8 7 7 7 6 6 6 6 5 5 5 5 5 5 5 5 5 5 5 5 5 5 5 5 6 6 6 6 5 6 5 5 5 5 5 4 4 4 4 4 4 3 3 2 1 1 0 0 0 1 1 1 2 2 2 2 2 3 3 4 4 4 5 5 5 6 6
13 13 12 12 12 12 12 11 11 11 10 10 10 10 9 9 9 8 8 8 8 7 7 7 6 6 6 6 6 6 6 6 6 6 5 6 6 6 6 6 6 6 6 7 6 6 6 6 6 5 5 5 5 5 4 4 4 5 4 3 3 3 2 2 2 2 2 2 2 2 2 2 3 3 3 4 4 4 5 6 6 7 7 7 7
13 13 13 13 12 12 12 12 11 11 11 11 10 10 10 9 9 9 8 8 8 8 8 7 7 7 7 7 7 7 7 6 6 6 6 6 7 7 7 7 7 7 7 7 7 7 7 6 6 6 6 6 5 5 5 4 4 5 4 4 4 3 3 4 3 3 3 3 3 3 4 4 4 4 4 5 5 5 6 6 7 8 8 9 9
14 13 13 13 13 13 12 12 12 11 11 11 11 10 10 10 10 9 9 9 9 9 8 8 8 8 8 8 8 8 8 7 7 7 7 7 8 8 8 7 7 7 7 7 7 8 7 7 7 7 7 6 6 5 6 5 5 5 5 5 4 4 5 5 4 5 5 5 5 5 5 6 6 6 6 6 6 7 7 7 8 9 9 10 10
15 14 14 13 13 13 13 13 12 12 12 12 11 11 10 10 10 10 10 9 9 9 9 9 9 9 9 9 9 8 8 8 9 9 9 9 9 9 9 8 8 8 8 8 8 9 8 8 8 8 8 7 7 7 6 6 6 7 6 6 6 6 6 6 6 6 6 7 7 7 7 8 8 8 8 8 8 8 8 9 9 10 10 11 11
15 15 15 14 14 14 14 13 13 13 12 12 12 11 11 11 10 10 10 10 10 10 10 10 10 9 9 9 9 9 9 10 10 10 10 10 10 10 10 10 10 10 9 9 10 10 10 10 9 10 9 8 8 8 8 8 8 8 8 7 7 7 7 7 7 7 7 8 8 8 9 9 10 10 10 10 10 10 10 10 10 11 11 12 12
16 16 16 15 15 15 14 14 14 14 13 13 13 12 11 11 11 11 11 10 10 11 11 11 11 10 10 10 10 10 11 11 11 12 12 12 11 11 11 11 11 11 11 10 11 11 11 11 11 11 10 10 10 9 9 9 9 9 9 9 9 9 9 9 9 8 7 8 9 10 10 11 11 11 12 12 12 12 12 12 12 12 12 13 13
17 17 16 16 16 16 15 15 15 14 14 14 14 13 12 12 12 11 11 11 11 11 11 11 11 11 11 11 11 12 12 12 12 13 13 13 13 12 12 12 12 12 12 12 12 12 13 13 12 12 12 11 11 10 10 10 10 10 10 9 9 9 9 10 10 9 9 9 10 11 11 12 12 13 13 13 14 14 14 14 14 14 14 14 14
18 18 17 17 16 16 16 16 15 15 15 15 15 15 14 13 13 13 12 12 12 12 12 12 12 12 12 13 13 13 14 14 14 14 14 14 14 13 13 13 13 13 13 13 13 13 14 14 14 13 13 13 12 11 10 10 10 10 10 10 10 10 10 10 10 10 10 10 10 11 11 12 13 14 14 14 15 15 15 15 16 16 16 16 16
20 19 18 18 17 17 17 16 16 16 16 16 16 15 15 15 14 14 14 13 13 13 13 12 12 13 13 13 13 14 14 14 14 14 14 14 14 14 14 14 13 14 14 14 14 14 15 15 14 14 14 14 14 12 11 11 11 11 11 11 11 11 10 11 11 11 11 11 11 11 12 12 13 14 14 15 15 16 16 17 17 17 17 17 17
21 20 20 19 18 17 17 17 17 17 17 17 17 16 16 16 15 15 15 14 14 14 14 13 13 14 14 14 14 14 14 14 15 14 14 14 14 14 14 14 14 15 15 15 15 15 16 15 15 15 14 14 14 14 13 13 13 13 12 12 12 12 12 12 12 12 12 12 12 13 13 13 13 13 14 15 16 16 17 17 18 18 18 19 19
21 21 21 20 19 19 18 18 18 18 17 17 17 17 16 16 16 16 16 16 15 15 15 14 14 14 14 15 15 15 15 15 15 15 15 15 15 15 14 15 15 15 16 16 16 16 16 16 16 15 15 15 14 14 14 13 13 14 14 13 13 13 13 13 13 13 13 13 13 13 13 13 14 14 14 15 16 16 17 18 18 19 19 20 20
22 22 22 21 21 20 20 19 19 19 18 18 18 17 17 17 17 17 17 17 17 16 16 15 15 15 15 16 16 16 16 16 16 16 16 16 16 16 16 16 16 16 16 16 17 17 17 16 16 16 15 15 15 14 15 14 14 14 15 14 14 14 14 14 14 13 14 14 14 14 14 15 15 15 16 16 16 17 17 18 18 19 19 20 21
24 23 23 23 22 22 21 21 20 20 19 19 19 18 18 18 18 18 18 18 18 17 17 17 16 16 16 16 17 17 17 17 17 17 18 18 18 18 18 17 17 17 17 17 17 17 17 17 17 16 16 16 15 15 15 15 14 14 15 15 15 15 15 15 14 14 14 14 14 15 15 16 16 16 17 17 17 18 18 17 17 18 18 19 21
25 24 24 24 23 23 22 22 21 21 20 20 19 19 19 19 19 18 18 18 18 18 18 18 18 17 17 18 18 18 18 18 18 18 19 19 19 19 19 19 19 19 19 19 18 18 18 18 18 17 17 17 16 15 15 15 15 15 15 15 16 16 17 17 16 15 15 15 16 16 17 17 17 17 18 18 18 19 19 18 18 19 19 20 21
25 25 25 24 24 23 23 23 22 22 21 20 20 20 20 19 19 19 19 19 19 19 19 19 19 19 19 19 19 19 18 18 19 19 20 20 20 20 20 20 20 20 20 20 20 20 20 19 19 18 18 17 17 16 16 16 16 17 17 17 17 17 18 18 18 17 16 17 17 18 18 18 17 18 19 19 19 19 19 19 20 20 20 21 22
26 26 25 25 25 24 24 24 23 22 22 21 21 21 21 21 20 20 20 20 20 20 20 20 20 20 20 20 19 19 19 19 20 20 21 21 21 21 21 20 20 20 20 21 21 20 20 20 19 19 18 18 18 18 18 18 18 18 18 19 19 19 19 19 19 19 19 18 18 18 19 18 19 20 20 20 21 21 20 19 20 21 21 22 23
26 26 26 26 26 25 25 24 24 23 22 22 22 22 22 22 22 22 21 21 21 21 21 21 21 21 21 21 21 20 21 21 21 22 22 22 22 22 22 21 21 20 20 21 20 20 20 20 20 19 18 18 19 19 19 19 20 20 20 20 20 20 21 21 21 20 19 19 19 19 20 21 21 22 22 21 22 22 21 20 20 21 22 23 23
27 27 27 26 26 26 26 25 24 24 23 24 24 24 24 24 23 23 22 22 22 22 21 21 21 21 22 22 22 22 22 22 22 22 23 23 23 23 22 21 20 20 19 18 18 17 17 17 18 18 18 18 18 19 20 20 21 21 21 21 21 21 21 21 21 20 20 21 21 21 22 24 24 24 24 23 23 23 23 22 22 23 23 23 23
27 27 27 26 26 26 26 26 25 24 24 25 25 25 25 25 24 24 23 23 23 22 22 21 21 22 22 22 23 23 22 22 22 23 24 24 24 24 22 20 20 20 19 18 17 17 16 15 16 17 17 17 17 18 19 20 20 21 20 20 20 21 21 21 21 22 22 22 23 24 25 25 25 26 26 26 26 26 25 25 24 24 24 24 24
28 27 27 26 26 26 26 26 26 25 25 25 25 25 25 25 25 24 24 24 23 23 22 22 22 22 22 22 22 22 22 22 22 23 23 23 23 22 20 19 18 18 17 17 17 17 17 17 17 17 17 18 18 18 18 19 19 20 20 20 21 21 21 21 22 23 23 23 23 25 25 25 25 26 27 27 27 26 26 26 25 25 25 25 25
28 27 26 26 27 27 27 27 27 26 26 26 26 26 26 25 25 25 25 25 24 23 23 22 22 22 22 21 21 21 21 22 22 21 21 20 20 19 17 15 15 15 16 17 17 17 18 19 19 19 19 19 19 20 20 19 19 19 20 21 21 21 21 21 22 23 23 23 23 24 24 24 24 24 25 26 26 25 26 26 26 27 27 27 27
Wind_Direction
177 174 170 170 170 168 165 166 166 161 160 158 156 154 148 137 130 133 124 101 84 64 40 31 27 23 19 15 13 14 15 15 15 15 16 17 16 14 13 14 16 16 12 8 7 5 1 360 358 356 354 354 354 357 357 355 356 357 356 352 346 339 332 325 317 306 294 284 274 264 260 253 243 237 232 226 223 221 219 217 216 214 212 211 212
179 175 174 174 172 169 167 168 167 164 162 162 164 162 154 146 147 144 117 98 66 41 19 13 11 10 8 3 4 8 10 9 7 7 8 12 12 9 7 3 1 4 360 357 358 358 357 354 352 352 350 349 351 357 358 353 354 356 356 353 348 342 334 327 320 310 298 287 277 266 260 255 245 236 232 226 223 220 217 215 213 212 211 210 210
181 178 177 175 173 171 168 167 166 166 167 167 167 163 159 158 155 145 112 74 15 9 1 360 357 353 352 352 355 1 4 2 360 360 2 8 6 2 4 0 353 351 347 345 348 350 351 350 348 348 347 346 347 353 359 355 352 355 358 356 350 345 337 329 322 313 301 289 279 269 259 252 243 235 230 226 221 218 215 213 211 210 209 208 208
183 180 177 174 174 173 167 165 166 169 172 170 170 169 171 171 164 164 117 343 335 347 347 346 345 342 341 343 348 353 356 356 357 358 358 359 358 357 360 358 354 349 342 339 340 342 343 344 344 344 344 344 343 347 357 355 352 355 358 358 353 347 340 332 325 316 305 293 281 271 260 249 240 233 228 223 219 215 212 211 209 207 207 206 205
183 179 178 176 175 171 166 167 169 171 175 176 179 182 182 181 187 209 264 303 319 337 339 341 343 341 339 340 345 349 351 352 355 356 356 353 352 355 353 350 351 350 346 341 338 336 336 338 339 340 342 343 342 345 355 357 355 356 358 359 356 350 344 336 329 319 309 297 283 272 261 249 239 230 225 220 216 212 209 208 207 205 204 204 204
181 179 179 177 173 171 169 170 171 172 176 180 187 190 190 192 207 235 269 294 316 333 335 340 342 340 341 341 344 348 349 350 352 353 353 350 346 346 344 344 345 346 347 345 339 335 333 335 335 338 340 342 343 344 357 1 357 357 357 358 358 353 348 342 335 325 313 300 285 274 263 249 236 225 220 217 212 209 207 205 203 202 202 202 202
181 179 180 177 172 173 174 172 174 176 177 183 191 194 199 206 223 255 276 297 316 326 330 336 337 338 342 341 344 347 348 349 351 349 345 343 340 339 340 342 342 343 346 344 341 338 335 335 335 337 339 342 344 346 358 4 359 358 357 359 360 356 353 348 342 334 322 309 290 273 258 243 229 216 211 210 207 204 203 201 200 199 198 199 199
181 178 178 176 175 177 176 177 179 179 180 185 193 198 208 218 235 267 286 302 309 315 324 330 332 336 340 341 345 348 346 348 349 347 345 342 338 336 336 340 341 341 342 341 342 342 340 339 337 339 340 343 346 347 359 7 2 0 360 1 2 0 358 354 348 342 332 319 300 274 251 234 221 208 201 200 200 198 197 196 196 195 195 196 197
179 176 178 178 178 180 178 180 181 181 183 185 192 200 213 225 238 265 286 300 306 313 321 327 330 336 340 342 346 346 345 347 346 344 344 341 337 338 338 339 341 339 340 342 344 346 346 344 342 342 342 344 347 349 359 9 6 3 3 4 5 5 4 1 357 352 343 333 313 276 239 222 212 203 194 192 192 191 191 191 191 191 191 192 194
177 176 180 181 181 183 182 182 182 183 185 184 190 199 215 232 240 254 284 301 309 316 321 326 328 334 342 344 345 345 343 343 342 342 343 340 340 343 341 340 343 340 338 339 342 346 348 349 349 349 348 348 349 350 358 9 10 8 6 8 10 11 10 8 6 2 357 355 346 296 209 200 197 194 188 186 186 184 184 185 186 187 187 189 190
177 178 183 185 185 186 186 186 185 185 186 189 193 198 207 222 238 253 291 306 310 315 319 323 327 334 341 341 342 343 342 343 345 345 345 342 341 342 339 341 346 343 338 336 337 341 347 354 355 355 355 354 354 354 358 8 15 13 11 13 16 16 15 14 14 13 13 17 24 65 148 171 177 179 179 180 181 180 178 180 182 183 183 185 186
179 182 186 187 187 186 187 187 187 187 188 191 195 197 200 208 231 257 293 307 309 311 320 329 330 336 340 336 339 342 344 349 351 351 351 349 347 347 346 346 348 346 343 343 342 344 352 358 356 356 359 1 1 360 360 5 14 18 16 18 21 21 20 21 21 22 26 33 42 72 114 143 155 163 169 172 175 175 174 175 178 179 180 181 183
182 185 187 189 188 187 187 188 188 189 191 196 201 205 210 219 241 262 283 303 312 316 332 336 328 336 343 340 341 346 350 354 357 359 359 356 353 353 353 351 351 351 350 352 352 350 354 359 358 359 2 5 7 8 7 8 13 20 21 22 25 26 25 26 28 30 36 45 54 72 100 123 138 149 158 163 167 170 171 171 173 176 177 179 181
183 185 188 189 189 188 188 191 191 193 198 203 208 214 220 229 247 264 275 293 304 310 328 331 326 339 345 341 345 354 358 356 359 1 359 357 356 356 359 358 358 358 356 357 357 355 357 2 5 5 4 7 10 12 14 15 17 21 24 25 28 30 30 31 34 38 44 53 63 74 93 110 125 139 147 153 159 165 168 168 169 172 175 177 178
183 186 189 190 190 189 189 191 195 199 204 207 211 219 227 234 246 260 275 289 298 305 322 325 327 338 341 340 347 356 4 4 3 1 357 358 358 359 4 6 6 4 359 358 2 4 3 4 7 7 5 9 12 15 17 19 21 24 26 28 30 33 34 36 40 45 50 58 68 77 88 102 115 128 137 143 151 159 163 164 165 168 171 173 175
185 187 190 191 191 192 191 193 197 202 205 207 213 221 228 237 248 257 270 284 294 304 315 320 326 335 339 341 345 352 4 2 359 359 357 359 3 8 10 8 9 10 5 3 7 10 7 6 9 8 6 9 14 17 19 21 24 26 29 31 34 36 37 40 44 49 54 61 70 77 85 97 109 120 130 137 143 149 155 159 162 165 168 170 172
186 189 191 192 193 195 197 198 201 204 205 207 213 222 231 240 248 255 263 273 285 296 304 310 320 333 338 340 344 349 354 351 350 355 356 357 3 9 10 5 6 10 10 10 10 10 11 10 11 11 9 12 18 19 20 23 26 28 32 35 37 39 41 44 47 52 57 63 70 78 85 93 104 114 124 131 136 141 148 153 157 161 165 167 170
188 191 192 194 195 197 200 202 203 206 208 212 217 226 233 237 244 250 253 260 271 286 295 300 313 324 326 332 339 337 340 344 345 351 354 356 0 5 9 6 8 14 15 16 15 11 13 11 10 13 15 18 21 21 22 24 27 29 33 38 41 43 45 47 51 56 60 65 71 78 85 93 101 109 117 124 130 136 142 148 153 158 161 164 168
189 192 194 196 198 200 203 205 206 209 212 217 222 228 233 236 241 246 248 256 263 274 283 290 305 312 317 325 326 326 332 338 343 346 348 356 1 5 10 9 14 22 20 19 17 13 13 11 10 14 20 23 22 22 24 25 27 31 35 39 44 47 49 51 54 59 63 68 73 79 85 92 99 106 112 119 125 132 139 145 149 153 157 161 165
190 193 196 198 201 203 205 207 210 212 214 219 224 228 234 237 242 247 249 255 259 264 273 282 291 295 308 317 317 321 325 331 341 341 343 353 1 6 14 16 19 23 20 19 19 17 17 16 14 18 24 26 24 24 25 26 30 34 38 43 47 51 53 55 58 61 65 70 75 80 84 91 97 104 110 116 122 129 135 141 146 150 155 159 163
192 195 197 199 203 205 206 208 211 214 217 222 226 229 233 238 244 247 249 253 256 260 266 272 279 285 292 299 306 314 316 324 335 335 342 353 358 3 11 16 19 19 19 21 22 22 23 24 24 26 30 29 25 25 27 29 34 36 41 47 51 54 56 58 61 64 67 71 75 81 86 90 96 102 108 114 120 125 131 137 143 148 153 157 161
195 198 200 201 203 205 206 208 212 216 220 223 227 230 234 238 242 245 247 251 253 255 260 263 268 279 286 288 292 301 308 319 327 333 342 348 353 359 5 9 13 16 19 21 25 27 29 32 33 33 35 32 28 29 31 33 35 38 44 51 54 57 59 60 63 67 71 73 76 81 86 91 95 101 107 113 119 124 130 136 141 146 150 155 159
197 201 203 204 205 206 207 210 214 218 221 224 228 231 235 238 239 242 247 249 249 251 254 258 261 269 276 279 281 289 301 310 318 329 336 342 350 354 360 6 8 12 15 18 24 29 32 35 36 35 35 33 31 32 34 35 37 40 47 53 56 59 61 63 64 67 72 76 78 81 85 91 95 100 106 112 118 124 130 136 141 146 151 156 161
200 202 204 204 205 208 209 211 216 219 223 225 228 232 236 238 238 240 244 245 246 249 250 256 261 264 269 274 278 285 295 304 313 322 326 338 348 348 354 2 5 11 16 18 23 28 31 35 36 34 34 34 33 33 35 37 38 39 45 53 58 60 63 65 67 68 72 77 81 84 86 90 94 99 104 110 116 123 129 135 141 148 154 160 167
204 204 205 205 207 210 212 214 219 222 225 228 230 234 236 238 237 238 242 244 244 246 247 254 260 263 268 272 276 283 294 302 310 316 322 334 339 341 351 356 360 9 15 18 20 23 28 33 35 33 31 32 31 32 35 39 41 41 42 50 59 63 65 67 70 72 74 77 82 87 90 93 95 98 103 110 117 123 130 138 145 153 160 166 172
207 207 207 207 208 212 214 218 221 224 226 229 231 235 236 236 236 238 241 242 243 245 247 251 255 259 262 267 271 280 288 294 301 308 315 323 328 337 346 349 354 3 10 14 15 20 25 28 32 31 28 28 26 28 32 35 42 44 42 45 54 62 66 67 71 76 79 81 83 88 94 98 102 104 106 111 118 126 135 144 153 161 169 175 180
208 209 210 211 211 213 217 220 222 223 226 228 230 232 234 234 234 237 239 240 241 244 246 248 253 256 257 261 267 274 281 286 294 302 306 313 322 333 338 340 348 355 1 5 8 15 18 17 25 25 22 23 20 21 26 28 36 43 41 43 49 56 61 62 69 77 85 90 92 94 99 105 112 117 120 123 127 133 142 151 160 168 176 182 187
209 211 212 213 214 216 219 222 223 223 225 227 229 230 232 233 234 237 238 238 240 243 245 248 252 255 256 257 262 269 276 281 287 294 297 304 313 319 323 327 334 340 348 354 357 2 4 5 15 16 13 14 14 16 18 18 26 30 29 34 39 45 56 59 63 71 87 103 108 109 110 117 125 135 146 152 155 158 162 168 173 179 184 189 194
212 213 214 215 216 218 220 221 222 224 225 227 229 230 231 233 235 237 237 237 240 242 245 248 250 253 254 255 259 264 271 274 279 285 289 295 299 300 305 310 317 322 329 337 338 340 348 354 2 4 2 2 3 7 8 9 16 10 3 6 9 16 39 54 59 64 85 135 150 147 144 147 154 163 174 185 192 194 196 196 197 200 201 204 207
215 216 216 216 218 219 220 221 221 223 225 227 229 230 232 235 235 237 238 238 242 244 246 249 250 252 253 255 259 264 268 271 276 282 285 287 289 289 293 297 301 305 311 318 321 324 331 337 344 350 350 351 351 351 352 357 1 355 345 338 338 341 341 329 291 261 216 207 215 214 210 209 210 211 212 213 215 216 218 220 220 220 220 221 222
217 218 218 218 219 219 221 222 223 224 226 227 228 231 233 236 236 238 238 238 242 245 247 250 251 252 252 255 259 263 267 271 275 280 282 284 286 287 288 290 293 296 300 303 306 310 315 320 327 331 332 337 339 337 337 341 344 343 337 327 324 320 308 295 271 256 249 237 239 240 236 239 240 240 240 238 236 234 232 232 232 232 232 232 232
219 219 219 219 220 221 221 223 224 225 226 227 229 230 233 235 236 239 239 238 242 246 249 250 251 252 253 257 260 264 268 271 274 277 279 281 284 286 287 287 289 292 295 296 297 299 303 308 312 314 317 323 326 324 323 326 332 333 331 324 316 307 297 289 273 262 259 253 250 249 247 246 247 249 251 250 249 248 246 244 243 243 241 240 240
220 220 220 221 222 223 223 225 226 226 227 228 229 230 232 234 236 240 241 241 244 247 250 251 252 253 255 259 263 265 267 271 273 275 278 280 281 282 282 283 285 288 289 291 294 296 299 302 304 304 306 309 311 311 310 311 315 319 320 316 310 302 294 288 277 265 262 262 258 257 257 255 252 251 252 253 253 253 253 252 251 250 250 249 248
222 222 223 223 224 224 225 226 227 228 229 230 231 232 233 235 238 241 243 244 246 248 250 252 253 254 255 258 262 265 269 272 273 275 279 282 282 282 282 282 284 286 286 285 288 291 294 297 298 297 298 299 300 302 301 301 303 305 306 305 301 298 293 291 286 272 262 263 262 261 262 261 259 258 257 256 256 255 255 255 254 253 253 253 252
224 224 225 226 226 226 227 228 229 230 231 231 232 233 235 237 240 243 245 247 249 251 253 254 255 256 257 260 264 267 270 272 273 275 278 279 281 280 279 280 281 283 282 281 283 287 290 291 292 293 294 294 294 295 295 295 296 297 297 298 297 295 293 292 291 281 267 263 264 262 262 263 263 263 263 262 261 260 259 259 258 257 256 255 255
226 226 227 227 228 229 229 230 231 232 233 233 233 234 237 240 243 245 247 250 252 254 256 258 259 260 262 265 266 267 270 271 272 276 277 276 277 276 274 275 277 279 280 280 281 285 287 288 289 290 291 289 288 289 290 291 292 292 293 294 293 292 290 289 289 284 272 267 268 265 264 264 264 264 264 264 264 263 263 262 261 261 259 259 259
228 228 228 229 229 230 231 232 233 234 234 234 235 237 239 242 245 247 249 251 253 255 257 259 261 262 263 266 267 268 272 273 273 276 276 275 274 274 273 273 274 276 278 279 280 281 283 285 287 288 287 285 283 283 285 288 290 290 290 291 290 289 289 287 285 282 274 272 274 271 268 266 265 265 265 264 264 264 263 263 263 263 263 263 263
229 230 230 231 231 231 233 234 235 236 236 236 237 239 241 244 247 249 250 252 254 256 258 260 261 262 263 265 267 269 271 273 275 277 277 275 274 273 272 271 271 273 275 277 278 279 281 284 285 286 287 287 286 285 284 287 289 289 288 287 286 286 287 287 285 283 280 279 278 275 273 271 268 266 265 265 264 263 263 263 263 263 264 264 264
230 231 232 232 233 234 235 236 237 238 238 239 240 241 244 246 248 249 251 253 255 257 259 259 261 263 264 266 268 269 271 273 275 276 276 275 274 273 271 271 271 272 274 276 278 279 281 283 283 285 287 289 290 289 287 287 288 287 285 285 285 284 284 285 284 284 283 283 281 278 277 277 273 270 268 267 265 265 264 264 264 264 264 265 265
231 232 232 233 234 235 237 238 239 239 240 241 243 244 245 247 248 250 251 253 256 260 260 259 261 264 266 267 269 270 272 274 274 275 276 276 276 275 274 273 272 273 275 277 277 278 280 281 282 284 286 286 287 288 287 286 286 285 283 282 283 283 282 282 281 281 282 283 283 280 278 278 277 275 273 271 269 267 266 265 265 265 265 265 266
232 233 233 233 235 236 237 239 240 240 241 242 243 244 245 247 248 250 253 256 259 260 260 260 262 265 266 266 268 270 273 274 274 275 276 277 276 277 277 275 274 275 276 277 277 278 279 279 281 283 284 284 284 285 285 284 285 286 284 282 282 282 282 281 279 280 282 283 283 282 280 281 281 278 277 276 272 270 269 268 267 267 266 266 267
234 234 234 234 235 236 237 239 240 241 242 242 243 244 245 247 250 253 256 258 260 260 259 260 262 264 265 266 267 270 273 273 273 274 275 276 276 277 277 276 275 275 276 277 277 277 278 279 280 281 281 281 282 283 285 285 285 287 287 285 284 284 283 282 281 281 281 281 283 283 281 282 282 279 278 278 275 273 273 271 269 269 269 268 269
235 236 237 236 236 237 238 240 241 242 243 243 242 243 245 248 251 254 257 259 260 260 259 260 262 263 265 266 268 272 273 273 273 273 274 275 275 275 275 275 275 275 276 277 277 277 278 278 278 278 278 279 281 283 285 286 287 288 288 286 286 286 286 284 283 282 280 281 283 283 283 282 281 280 279 278 277 276 278 278 277 275 275 273 273
235 236 238 238 238 238 239 240 241 243 243 243 243 244 246 248 251 254 257 259 260 260 261 261 262 263 265 266 269 271 272 273 274 274 274 274 274 274 274 274 274 274 275 276 276 276 278 278 277 276 276 277 279 282 284 286 286 287 287 287 286 287 287 285 284 282 282 282 283 283 284 283 281 280 280 279 279 279 280 281 281 279 279 278 276
235 236 238 239 239 239 240 241 242 243 244 244 245 246 248 249 252 255 258 260 260 261 261 262 263 264 265 267 268 269 270 272 274 274 274 274 274 274 273 273 274 274 275 276 275 276 277 277 276 276 276 277 278 280 282 284 285 285 286 286 286 286 286 284 283 284 285 286 285 284 283 283 282 282 281 280 281 282 281 281 280 279 280 281 279
236 236 238 239 239 240 240 241 242 243 244 246 247 248 249 250 253 256 259 260 261 261 262 263 264 266 267 269 270 271 271 273 274 274 274 274 274 274 273 273 274 275 275 276 275 274 275 276 276 277 277 278 279 280 282 283 284 284 284 285 285 285 285 284 284 285 287 288 286 283 282 283 284 284 282 282 283 283 282 282 281 281 282 282 281
236 237 238 239 240 240 241 241 242 243 245 247 249 250 251 252 253 256 258 259 260 262 263 264 265 268 270 271 273 273 273 274 275 275 275 275 275 274 273 274 275 276 277 277 276 275 274 274 274 275 277 279 280 280 282 283 283 283 283 283 283 284 283 284 285 285 286 287 286 283 282 285 287 286 283 282 283 283 282 282 283 283 283 283 283
237 237 238 239 240 240 240 241 242 243 246 248 249 250 251 253 255 256 257 258 260 261 262 264 266 268 270 271 273 274 274 274 276 277 276 276 277 276 274 274 275 276 276 276 277 277 276 274 273 273 276 279 281 282 284 285 284 283 282 282 282 283 283 283 283 283 284 286 287 285 283 285 286 286 284 283 282 282 283 283 283 283 283 283 284
237 237 238 239 240 241 241 242 243 244 246 249 250 251 252 253 254 256 257 258 259 260 261 264 267 269 271 273 274 274 275 276 278 279 278 277 277 276 274 274 275 274 272 272 273 273 273 274 276 276 276 277 280 284 286 287 286 284 281 281 282 282 282 282 283 284 285 286 287 286 284 284 285 285 285 283 282 281 281 281 282 282 282 283 284
237 237 238 239 240 241 242 243 244 245 247 249 251 252 253 253 254 254 256 258 259 260 261 264 266 268 272 275 276 275 276 278 279 280 279 278 277 276 275 273 272 271 269 268 269 269 270 272 275 278 279 279 281 284 286 287 287 285 283 282 283 283 282 283 285 286 286 288 290 288 285 284 285 285 284 283 281 281 281 281 282 284 284 283 284
236 237 239 240 241 242 243 244 246 247 249 250 251 252 253 253 254 254 255 256 258 259 260 263 266 269 272 275 277 277 278 279 280 279 279 278 277 276 274 270 269 269 269 269 271 272 274 275 276 276 279 280 281 283 285 287 288 287 285 284 284 284 284 285 287 288 287 289 293 292 287 286 286 286 285 284 281 281 282 282 283 285 285 284 284